[[{"header":{"parameterUnit":"m.s-1","parameterCategory":1,"la1":30.2991,"la2":30.254,"lo1":-89.0895,"lo2":-89.0444,"dy":0.0017,"dx":0.0017,"nx":28,"ny":28,"refTime":"2023-10-28T09:00:00:Z","depth":0,"parameterNumber":2,"parameterNumberName":"U-component_of_WINDS"},"data":[0,0,0,0,0,0,0,0,0,0,0,0,0,0,0,0,0,0,0,0,0,0,0,0,0,0,0,0,0,0,0,0,0,0,0,0,0,0,0,0,0,0,0,0,0,0,0,0,0,0,0,0,0,0,0,0,0,0,-0.8345,-0.8345,0,-0.8385,-0.8385,-0.8386,-0.8376,-0.8376,-0.8375,-0.8374,-0.8419,-0.8421,-0.8423,0,0,0,0,0,0,0,0,0,0,0,0,0,-0.8267,-0.8268,-0.8345,-0.8345,-0.8346,-0.8385,-0.8385,-0.8386,-0.8377,-0.8376,-0.8375,-0.8374,-0.8418,-0.8421,-0.8423,0,0,0,0,0,0,0,0,0,0,0,0,0,-0.8303,-0.8269,-0.8345,-0.8346,-0.8346,-0.8384,-0.8385,-0.8386,-0.8377,-0.8376,-0.8374,-0.8373,-0.8418,-0.842,-0.8423,-0.8464,0,0,-0.8432,-0.8433,0,0,0,0,0,0,0,0,-0.8301,-0.8306,-0.8345,-0.8346,-0.8347,-0.8374,-0.8374,-0.8412,-0.8377,-0.8365,-0.8374,-0.8373,-0.8405,-0.8409,-0.8419,-0.8466,-0.8468,-0.8432,-0.8434,-0.8435,-0.8436,0,0,0,0,0,0,0,-0.8299,-0.8304,-0.8361,-0.8346,-0.8347,-0.8346,-0.835,-0.8381,-0.8392,-0.8366,-0.8366,-0.837,-0.8405,-0.8416,-0.842,-0.8469,-0.8432,-0.8435,-0.8436,-0.8438,-0.8553,-0.8555,0,0,0,0,0,0,-0.8295,-0.8302,-0.836,-0.8362,-0.832,-0.8349,-0.8353,-0.8367,-0.8391,-0.8394,-0.8371,-0.837,-0.8412,-0.8417,-0.8422,-0.8472,-0.8435,-0.8438,-0.8439,-0.8552,-0.8554,-0.8555,0,0,0,0,0,0,-0.8293,-0.83,-0.8358,-0.8332,-0.8339,-0.8351,-0.8367,-0.8368,-0.8379,-0.8395,-0.8397,-0.838,-0.8411,-0.8418,-0.8454,-0.8474,-0.8439,-0.8442,-0.855,-0.8553,-0.8554,-0.8573,0,0,0,0,0,0,-0.8291,-0.83,-0.8314,-0.8332,-0.8341,-0.8388,-0.8368,-0.837,-0.8383,-0.8382,-0.8404,-0.8406,-0.8411,-0.8449,-0.8457,-0.8477,-0.8444,-0.8549,-0.8551,-0.8554,-0.857,-0.8575,-0.8579,0,0,0,0,0,-0.8288,-0.8318,-0.8314,-0.8321,-0.8358,-0.8389,-0.8394,-0.8397,-0.8385,-0.84,-0.8411,-0.8406,-0.847,-0.8453,-0.8461,-0.8483,-0.8547,-0.8551,-0.8554,-0.8568,-0.8574,-0.8579,0,0,0,0,0,0,-0.8302,-0.832,-0.8317,-0.8352,-0.8369,-0.8387,-0.8406,-0.8403,-0.8424,-0.8422,-0.8427,-0.8432,-0.8469,-0.848,-0.846,-0.8525,-0.8507,-0.8512,-0.8516,-0.8522,-0.8526,-0.8523,-0.8446,0,0,0,0,0,-0.8309,-0.833,-0.8346,-0.8376,-0.8385,-0.8394,-0.8407,-0.8409,-0.8427,-0.8434,-0.8447,-0.8466,-0.8491,-0.8507,-0.853,-0.8572,-0.8578,-0.8591,-0.8596,-0.8599,-0.8603,-0.8628,-0.8635,-0.8565,-0.8565,-0.8565,0,0,-0.8324,-0.8337,-0.835,-0.8379,-0.8392,-0.8416,-0.84,-0.8426,-0.8444,-0.8438,-0.8473,-0.8483,-0.8505,-0.8545,-0.8563,-0.8555,-0.8624,-0.8603,-0.8606,-0.8608,-0.8632,-0.8639,-0.8644,-0.8567,-0.8567,-0.8567,0,0,-0.8364,-0.8375,-0.8402,-0.8415,-0.8435,-0.8441,-0.8448,-0.8467,-0.8473,-0.8508,-0.8505,-0.8528,-0.857,-0.8586,-0.8599,-0.8648,-0.8644,-0.8655,-0.8678,-0.8703,-0.8708,-0.8713,-0.8731,-0.8738,-0.8659,-0.866,-0.866,0,-0.838,-0.8414,-0.8417,-0.8443,-0.8457,-0.8452,-0.8481,-0.8494,-0.8521,-0.8532,-0.8522,-0.8576,-0.859,-0.8634,-0.8646,-0.8657,-0.8666,-0.8653,-0.8707,-0.8712,-0.8716,-0.8734,-0.8741,-0.8661,-0.8661,-0.866,-0.866,0,-0.8435,-0.8459,-0.8479,-0.8504,-0.852,-0.8547,-0.8556,-0.8572,-0.8573,-0.8581,-0.8618,-0.8635,-0.8663,-0.8674,-0.8675,-0.8719,-0.8713,-0.8705,-0.8688,-0.8724,-0.8741,-0.8748,-0.8663,-0.8662,-0.8662,-0.8661,0,0,-0.8483,-0.851,-0.8517,-0.8529,-0.8551,-0.8571,-0.8599,-0.8625,-0.864,-0.866,-0.8685,-0.8722,-0.8715,-0.873,-0.8734,-0.8755,-0.8794,-0.8745,-0.8745,-0.8754,-0.8845,-0.8852,-0.8859,-0.8792,-0.8793,-0.8794,-0.8844,0,-0.8525,-0.8573,-0.8577,-0.8621,-0.8645,-0.8641,-0.8667,-0.8684,-0.8693,-0.8716,-0.8727,-0.8753,-0.8741,-0.8751,-0.8772,-0.8785,-0.8812,-0.8781,-0.8817,-0.8819,-0.8812,-0.8868,-0.8874,-0.892,-0.885,-0.8851,-0.8852,0,-0.858,-0.8601,-0.8647,-0.8667,-0.8677,-0.8699,-0.8724,-0.8746,-0.8767,-0.8772,-0.879,-0.8791,-0.8823,-0.8805,-0.885,-0.8828,-0.8844,-0.8853,-0.8855,-0.8858,-0.8838,-0.8874,-0.8934,-0.8941,-0.8862,-0.8862,-0.8861,0,-0.8612,-0.8651,-0.8684,-0.8694,-0.8719,-0.8735,-0.8746,-0.8765,-0.8782,-0.8804,-0.8815,-0.8842,-0.8857,-0.8879,-0.8888,-0.8874,-0.8933,-0.8915,-0.894,-0.894,-0.8953,-0.8952,-0.9017,-0.8962,-0.8962,-0.8962,-0.8961,0,-0.8659,-0.8688,-0.8699,-0.8719,-0.8752,-0.8757,-0.8791,-0.8801,-0.8819,-0.8843,-0.8843,-0.8866,-0.8876,-0.8902,-0.8909,-0.8947,-0.8953,-0.896,-0.8962,-0.896,-0.8959,-0.897,-0.8968,-0.8963,-0.8963,-0.8963,-0.8962,0,-0.87,-0.8708,-0.8744,-0.8764,-0.877,-0.8794,-0.8812,-0.8833,-0.8842,-0.8873,-0.8881,-0.8896,-0.8926,-0.8937,-0.8974,-0.8979,-0.9023,-0.9022,-0.9015,-0.9016,-0.904,-0.9038,-0.9115,-0.9127,-0.9063,-0.9064,-0.9064,0,-0.873,-0.8752,-0.8774,-0.8789,-0.8801,-0.8826,-0.8842,-0.8849,-0.8867,-0.8893,-0.8911,-0.8941,-0.8965,-0.9014,-0.9029,-0.9058,-0.9059,-0.9084,-0.9063,-0.9061,-0.906,-0.9059,-0.9062,-0.9088,-0.9088,-0.9089,-0.9089,0,-0.8782,-0.8785,-0.8807,-0.8832,-0.8851,-0.8872,-0.8891,-0.8904,-0.8915,-0.8935,-0.8965,-0.8984,-0.9021,-0.9052,-0.9082,-0.9096,-0.9095,-0.9096,-0.9103,-0.9102,-0.9098,-0.9102,-0.9026,-0.9094,-0.9093,-0.9093,-0.9093,-0.9093,-0.8819,-0.8839,-0.8858,-0.8884,-0.8899,-0.8918,-0.8939,-0.895,-0.8975,-0.9005,-0.9009,-0.9042,-0.9064,-0.9104,-0.912,-0.9147,-0.9141,-0.9151,-0.9154,-0.9157,-0.9159,-0.9093,-0.9153,-0.9153,-0.9153,-0.9152,-0.9152,0,-0.8872,-0.8884,-0.8908,-0.8935,-0.8956,-0.8952,-0.8974,-0.8992,-0.9021,-0.9041,-0.9065,-0.9101,-0.9131,-0.9149,-0.918,-0.9198,-0.9199,-0.9206,-0.9205,-0.9209,-0.9162,-0.9153,-0.9205,-0.9205,-0.9205,-0.9205,-0.9205,-0.9205,-0.8902,-0.8936,-0.8942,-0.8984,-0.8997,-0.9028,-0.9041,-0.9059,-0.9076,-0.9115,-0.9139,-0.9151,-0.9171,-0.9203,-0.9232,-0.9236,-0.9248,-0.9256,-0.9261,-0.9217,-0.9212,-0.9207,-0.9198,-0.9259,-0.9259,-0.9305,-0.9306,-0.9306]},{"header":{"parameterUnit":"m.s-1","parameterCategory":1,"la1":30.2991,"la2":30.254,"lo1":-89.0895,"lo2":-89.0444,"dy":0.0017,"dx":0.0017,"nx":28,"ny":28,"refTime":"2023-10-28T09:00:00:Z","depth":0,"parameterNumber":3,"parameterNumberName":"V-component_of_WINDS"},"data":[0,0,0,0,0,0,0,0,0,0,0,0,0,0,0,0,0,0,0,0,0,0,0,0,0,0,0,0,0,0,0,0,0,0,0,0,0,0,0,0,0,0,0,0,0,0,0,0,0,0,0,0,0,0,0,0,0,0,1.696,1.6962,0,1.7072,1.7073,1.7074,1.7117,1.7116,1.7116,1.7116,1.7229,1.7232,1.7235,0,0,0,0,0,0,0,0,0,0,0,0,0,1.6785,1.6788,1.696,1.6962,1.6963,1.7071,1.7073,1.7074,1.7117,1.7116,1.7116,1.7115,1.7228,1.7231,1.7235,0,0,0,0,0,0,0,0,0,0,0,0,0,1.6875,1.6789,1.696,1.6997,1.7002,1.7071,1.7073,1.7075,1.7117,1.7116,1.7116,1.7115,1.7226,1.7231,1.7236,1.7276,0,0,1.7251,1.7253,0,0,0,0,0,0,0,0,1.687,1.6882,1.699,1.6995,1.7,1.708,1.7053,1.7142,1.7117,1.7073,1.7116,1.7115,1.7179,1.7188,1.721,1.7282,1.7286,1.7252,1.7255,1.7257,1.7258,0,0,0,0,0,0,0,1.6864,1.6877,1.7004,1.6992,1.6998,1.7009,1.7021,1.707,1.7127,1.7077,1.708,1.7093,1.7182,1.7205,1.7213,1.7288,1.7251,1.7256,1.7259,1.7261,1.7401,1.7401,0,0,0,0,0,0,1.6852,1.6872,1.7001,1.7008,1.6933,1.7012,1.7026,1.7055,1.7127,1.7138,1.7093,1.7094,1.7197,1.7207,1.7217,1.7271,1.7257,1.7261,1.7264,1.74,1.7401,1.7402,0,0,0,0,0,0,1.6848,1.6863,1.6996,1.6941,1.6959,1.7016,1.7048,1.7057,1.708,1.7139,1.715,1.7106,1.7197,1.721,1.7262,1.7275,1.7264,1.7268,1.7399,1.74,1.7401,1.7377,0,0,0,0,0,0,1.6842,1.6861,1.6876,1.6941,1.6961,1.7039,1.7048,1.7059,1.7089,1.7092,1.7155,1.7164,1.7198,1.7254,1.7267,1.7282,1.7272,1.7398,1.74,1.7401,1.7376,1.7377,1.7377,0,0,0,0,0,1.6836,1.6864,1.6877,1.6892,1.6982,1.7039,1.7051,1.7089,1.709,1.7106,1.7145,1.7162,1.7272,1.7259,1.7274,1.729,1.7397,1.7399,1.7401,1.7376,1.7377,1.7377,0,0,0,0,0,0,1.6799,1.6873,1.6888,1.6938,1.6982,1.7046,1.7068,1.7088,1.7132,1.7133,1.7177,1.7191,1.724,1.727,1.7255,1.7334,1.7336,1.734,1.7312,1.7313,1.7313,1.7305,1.7276,0,0,0,0,0,1.6797,1.6838,1.69,1.6938,1.696,1.701,1.7036,1.7062,1.7109,1.7128,1.717,1.7215,1.726,1.7288,1.7332,1.7381,1.7396,1.74,1.74,1.74,1.7404,1.7434,1.7436,1.7407,1.7407,1.7407,0,0,1.6793,1.6839,1.6861,1.6932,1.6969,1.7011,1.7025,1.7068,1.7099,1.7134,1.7186,1.7219,1.7272,1.7323,1.7348,1.735,1.7415,1.7402,1.7402,1.7405,1.7435,1.7438,1.7441,1.7408,1.7408,1.7408,0,0,1.6807,1.6845,1.6881,1.6919,1.6975,1.7009,1.7018,1.708,1.7103,1.7156,1.7183,1.7221,1.7297,1.7335,1.7363,1.7394,1.7412,1.7407,1.7408,1.7437,1.7439,1.7441,1.7453,1.7457,1.741,1.741,1.741,0,1.6794,1.6857,1.6898,1.694,1.6971,1.7005,1.7044,1.7078,1.7145,1.7166,1.7168,1.7266,1.7304,1.7365,1.7372,1.7394,1.7407,1.74,1.7435,1.7438,1.7441,1.7453,1.7457,1.7409,1.7409,1.7409,1.7409,0,1.684,1.6883,1.6906,1.6972,1.7006,1.7045,1.7092,1.7122,1.7145,1.7179,1.7233,1.7281,1.7336,1.7352,1.7375,1.7417,1.7417,1.7427,1.7429,1.7442,1.7454,1.7459,1.7408,1.7408,1.7408,1.7409,0,0,1.6832,1.6921,1.6929,1.696,1.7026,1.706,1.7102,1.7157,1.7182,1.7228,1.7265,1.7329,1.7339,1.7372,1.7399,1.7424,1.7447,1.7431,1.7433,1.7433,1.7498,1.7491,1.7495,1.746,1.7461,1.7462,1.7494,0,1.6855,1.6931,1.697,1.703,1.7071,1.7106,1.7143,1.7188,1.7221,1.7261,1.7298,1.7343,1.7352,1.7373,1.7399,1.7439,1.7461,1.7437,1.7495,1.7497,1.7481,1.7502,1.7494,1.7522,1.7499,1.75,1.75,0,1.6891,1.6938,1.7002,1.7065,1.7084,1.7116,1.7171,1.7209,1.7261,1.7283,1.7321,1.7348,1.7395,1.7394,1.746,1.7442,1.7469,1.7492,1.7494,1.7501,1.7499,1.751,1.7531,1.7536,1.7508,1.7507,1.7507,0,1.688,1.6959,1.7008,1.7034,1.7108,1.713,1.7162,1.7214,1.7245,1.7293,1.7314,1.7366,1.7394,1.7435,1.7476,1.7471,1.7537,1.754,1.7558,1.7557,1.757,1.7569,1.7597,1.7586,1.7586,1.7586,1.7586,0,1.6901,1.6939,1.7005,1.7035,1.7079,1.7124,1.7167,1.7202,1.7248,1.7286,1.7319,1.7354,1.7406,1.7448,1.748,1.753,1.7543,1.7563,1.7571,1.756,1.7558,1.7578,1.7577,1.7587,1.7587,1.7587,1.7587,0,1.6896,1.6941,1.6997,1.7064,1.7082,1.7111,1.7169,1.72,1.7235,1.7283,1.7297,1.7353,1.7404,1.7449,1.7517,1.7539,1.759,1.76,1.7573,1.7577,1.7593,1.7591,1.7635,1.7644,1.7627,1.7627,1.7627,0,1.6907,1.6937,1.7008,1.7036,1.7068,1.7112,1.7145,1.7191,1.7223,1.7286,1.731,1.7364,1.7409,1.749,1.7537,1.7589,1.7601,1.7613,1.7609,1.7598,1.7602,1.76,1.7604,1.7613,1.7613,1.7613,1.7612,0,1.6922,1.6943,1.6988,1.7043,1.7081,1.7125,1.7171,1.7192,1.7246,1.7282,1.7335,1.737,1.744,1.7494,1.7552,1.7586,1.7609,1.7614,1.7621,1.761,1.7593,1.7603,1.7573,1.7612,1.7612,1.7612,1.7612,1.7612,1.6925,1.6955,1.7009,1.706,1.7099,1.7141,1.7174,1.7215,1.726,1.7321,1.7346,1.74,1.7454,1.7534,1.7568,1.7612,1.7615,1.7625,1.7628,1.763,1.7629,1.7586,1.7622,1.7622,1.7622,1.7622,1.7622,0,1.6943,1.698,1.7026,1.7089,1.7129,1.7148,1.72,1.7232,1.728,1.7328,1.7372,1.7435,1.7487,1.7539,1.7595,1.762,1.7632,1.7633,1.7632,1.7639,1.7621,1.761,1.7622,1.7622,1.7622,1.7622,1.7622,1.7622,1.6956,1.7008,1.7036,1.7107,1.7145,1.7199,1.7227,1.7267,1.7305,1.7374,1.7418,1.7451,1.7501,1.7561,1.7611,1.7625,1.7644,1.7642,1.7659,1.7641,1.764,1.764,1.763,1.7646,1.7646,1.7674,1.7674,1.7674]}]]